DW6345 Murcia ES current weather conditions

sailwx.info

Wind from 039 at 12 knots gusting 19

Air temperature 32.2° C
Dewpoint 15.7° C

Last reported at 2019-Jul-21 15:00 UTC.
Time now 2019-Jul-21 15:24 UTC

Location: N 37°60' W 001°06'.
View on Google Maps.

See reports from other nearby stations

  
Tides and Currents Weather Stations Pressure Air Temp Water Temp Dewpoint Dewpoint Depression Visibility Wind Speed Wind Dir Waves Ship Positions
date/time (UTC)wind fromknots sea level pressurealtimeterstation pressurevisibilityair tempwater tempwave heightnotes
2019-Jul-21 15:10 047 11 gusting 19 32.2
2019-Jul-21 15:05 061 12 gusting 19 32.2
2019-Jul-21 15:00 039 12 gusting 19 32.2
2019-Jul-21 14:55 042 11 gusting 22 32.2
2019-Jul-21 14:50 050 11 gusting 22 32.2
2019-Jul-21 14:45 048 13 gusting 22 32.2
2019-Jul-21 14:40 053 12 gusting 24 32.2
2019-Jul-21 14:35 043 10 gusting 19 32.2
2019-Jul-21 14:30 046 10 gusting 19 32.2
2019-Jul-21 14:25 055 10 gusting 20 32.2
2019-Jul-21 14:20 062 10 gusting 20 32.2
2019-Jul-21 14:15 059 8 gusting 14 32.2
2019-Jul-21 14:10 070 9 gusting 18 32.2
2019-Jul-21 14:05 053 10 gusting 19 32.8
2019-Jul-21 14:00 040 10 gusting 17 32.8
2019-Jul-21 13:55 043 10 gusting 19 32.2
2019-Jul-21 13:50 049 9 gusting 15 32.8
2019-Jul-21 13:45 069 7 gusting 19 32.8
2019-Jul-21 13:40 075 8 gusting 15 32.8
2019-Jul-21 13:35 059 11 gusting 18 32.8
2019-Jul-21 13:30 073 10 gusting 18 32.8
2019-Jul-21 13:25 052 10 gusting 19 32.8
2019-Jul-21 13:20 062 9 gusting 18 32.8
2019-Jul-21 13:15 095 8 gusting 19 32.8
2019-Jul-21 13:10 044 9 gusting 17 32.8
2019-Jul-21 13:05 084 10 gusting 15 32.8
2019-Jul-21 13:00 089 10 gusting 17 32.8
2019-Jul-21 12:55 051 10 gusting 18 32.8
2019-Jul-21 12:50 057 10 gusting 15 32.8
2019-Jul-21 12:45 050 10 gusting 18 32.2
2019-Jul-21 12:40 055 9 gusting 15 32.2
2019-Jul-21 12:35 066 8 gusting 19 32.8
2019-Jul-21 12:30 079 9 gusting 17 32.8
2019-Jul-21 12:25 066 11 gusting 15 32.8
2019-Jul-21 12:20 045 10 gusting 19 32.2
2019-Jul-21 12:15 058 10 gusting 18 32.2
2019-Jul-21 12:10 046 10 gusting 15 32.2
2019-Jul-21 12:05 057 11 gusting 18 32.2
2019-Jul-21 12:00 056 11 gusting 19 32.2
2019-Jul-21 11:55 044 11 gusting 20 31.7
2019-Jul-21 11:50 052 11 gusting 15 32.2
2019-Jul-21 11:45 061 12 gusting 19 31.7
2019-Jul-21 11:40 053 11 gusting 19 31.7
2019-Jul-21 11:35 048 11 gusting 15 31.7
2019-Jul-21 11:30 054 11 gusting 15 31.7
2019-Jul-21 11:25 053 11 gusting 18 31.7
2019-Jul-21 11:20 056 11 gusting 18 31.7
2019-Jul-21 11:15 045 11 gusting 18 31.7
2019-Jul-21 11:10 047 10 gusting 20 32.2
2019-Jul-21 11:05 061 8 gusting 15 32.2
2019-Jul-21 11:00 045 10 gusting 20 32.2
2019-Jul-21 10:55 043 11 gusting 17 32.2
2019-Jul-21 10:50 063 10 gusting 18 32.2
2019-Jul-21 10:45 042 10 gusting 18 32.2
2019-Jul-21 10:40 047 10 gusting 18 32.2
2019-Jul-21 10:35 065 10 gusting 18 32.2
2019-Jul-21 10:30 050 10 gusting 15 32.2
2019-Jul-21 10:25 066 10 gusting 19 32.2
2019-Jul-21 10:20 031 9 gusting 19 32.2
2019-Jul-21 10:15 063 8 gusting 15 31.7
2019-Jul-21 10:10 069 10 gusting 19 31.7
2019-Jul-21 10:05 052 11 gusting 17 31.1
2019-Jul-21 10:00 067 10 gusting 15 31.1
2019-Jul-21 09:55 034 7 gusting 20 31.1
2019-Jul-21 09:50 033 8 gusting 15 30.6
2019-Jul-21 09:45 042 8 gusting 13 30.6
2019-Jul-21 09:40 046 8 gusting 13 30.0
2019-Jul-21 09:35 035 7 gusting 13 30.0
2019-Jul-21 09:30 032 6 gusting 14 30.0
2019-Jul-21 09:25 046 5 gusting 14 30.0
2019-Jul-21 09:20 050 5 gusting 13 30.0
2019-Jul-21 09:15 026 6 gusting 10 29.4
2019-Jul-21 09:10 346 5 gusting 11 29.4
2019-Jul-21 09:05 049 4 gusting 12 29.4
2019-Jul-21 09:00 042 4 gusting 11 29.4
2019-Jul-21 08:55 029 4 gusting 8 29.4
2019-Jul-21 08:50 064 3 gusting 8 29.4
2019-Jul-21 08:45 048 1 gusting 8 30.0
2019-Jul-21 08:40 030 1 gusting 4 29.4
2019-Jul-21 08:35 139 1 gusting 6 29.4
2019-Jul-21 08:30 317 1 gusting 4 29.4
2019-Jul-21 08:25 28.9
2019-Jul-21 08:20 263 1 gusting 4 28.3
2019-Jul-21 08:15 306 1 gusting 4 28.3
2019-Jul-21 08:10 272 1 gusting 4 27.8
2019-Jul-21 08:05 143 2 gusting 4 27.8
2019-Jul-21 08:00 265 2 gusting 6 27.8
2019-Jul-21 07:55 210 2 gusting 5 27.2
2019-Jul-21 07:50 230 2 gusting 5 27.2
2019-Jul-21 07:45 230 4 gusting 4 27.2
2019-Jul-21 07:40 284 4 gusting 6 27.2
2019-Jul-21 07:35 217 4 gusting 6 26.7
2019-Jul-21 07:30 188 4 gusting 6 26.7
2019-Jul-21 07:25 238 4 gusting 7 26.7
2019-Jul-21 07:20 216 4 gusting 7 26.7
2019-Jul-21 07:15 241 4 gusting 6 26.1
2019-Jul-21 07:10 275 4 gusting 5 26.1
2019-Jul-21 07:05 255 4 gusting 6 26.1
2019-Jul-21 07:00 277 4 gusting 6 26.1
2019-Jul-21 06:55 235 5 gusting 6 25.6
2019-Jul-21 06:50 237 5 gusting 6 25.6
2019-Jul-21 06:45 259 5 gusting 7 25.6
2019-Jul-21 06:40 233 5 gusting 7 25.6
2019-Jul-21 06:35 229 5 gusting 8 25.6
2019-Jul-21 06:30 234 5 gusting 8 25.6
2019-Jul-21 06:25 219 5 gusting 7 25.6
2019-Jul-21 06:20 210 4 gusting 7 25.6
2019-Jul-21 06:15 202 4 gusting 7 25.6
2019-Jul-21 06:10 187 4 gusting 7 25.6
2019-Jul-21 06:05 194 4 gusting 6 25.6
2019-Jul-21 06:00 213 4 gusting 6 25.6
2019-Jul-21 05:55 214 4 gusting 6 25.0
2019-Jul-21 05:50 202 3 gusting 5 25.0
2019-Jul-21 05:45 199 2 gusting 5 25.0
2019-Jul-21 05:40 208 2 gusting 6 25.0
2019-Jul-21 05:35 206 1 gusting 5 25.0
2019-Jul-21 05:30 235 1 gusting 4 25.0
2019-Jul-21 05:25 194 2 gusting 4 25.0
2019-Jul-21 05:20 206 2 gusting 5 25.0
2019-Jul-21 05:15 199 4 gusting 4 25.0
2019-Jul-21 05:10 192 4 gusting 6 25.0
2019-Jul-21 05:05 202 5 gusting 5 25.0
2019-Jul-21 05:00 191 4 gusting 6 25.0
2019-Jul-21 04:55 208 4 gusting 8 25.0
2019-Jul-21 04:50 185 3 gusting 6 25.0
2019-Jul-21 04:45 211 1 gusting 5 25.0
2019-Jul-21 04:40 188 1 gusting 4 25.0
2019-Jul-21 04:35 233 2 gusting 4 25.0
2019-Jul-21 04:30 211 2 gusting 4 25.0
2019-Jul-21 04:25 208 4 gusting 5 25.0
2019-Jul-21 04:20 215 4 gusting 5 25.0
2019-Jul-21 04:15 203 4 gusting 6 25.0
2019-Jul-21 04:10 210 4 gusting 6 25.0
2019-Jul-21 04:05 198 4 gusting 6 25.0
2019-Jul-21 04:00 195 4 gusting 6 25.0
2019-Jul-21 03:55 212 4 gusting 6 25.0
2019-Jul-21 03:50 200 4 gusting 6 25.0
2019-Jul-21 03:45 213 4 gusting 6 25.0
2019-Jul-21 03:40 202 4 gusting 6 25.0
2019-Jul-21 03:35 185 5 gusting 5 25.0
2019-Jul-21 03:30 191 4 gusting 6 25.0
2019-Jul-21 03:25 213 4 gusting 6 25.0
2019-Jul-21 03:20 193 4 gusting 6 25.6
2019-Jul-21 03:15 161 4 gusting 5 25.6
2019-Jul-21 03:10 209 3 gusting 6 25.6
2019-Jul-21 03:05 214 2 gusting 5 25.6
2019-Jul-21 03:00 196 2 gusting 5 25.6
2019-Jul-21 02:55 225 1 gusting 4 25.6
2019-Jul-21 02:50 241 2 gusting 4 25.6
2019-Jul-21 02:45 239 2 gusting 5 25.6
2019-Jul-21 02:40 159 2 gusting 5 25.6
2019-Jul-21 02:35 209 1 gusting 5 25.6
2019-Jul-21 02:30 183 2 gusting 4 25.6
2019-Jul-21 02:25 175 2 gusting 5 25.6
2019-Jul-21 02:20 223 2 gusting 6 25.6
2019-Jul-21 02:15 212 4 gusting 5 25.6
2019-Jul-21 02:10 200 3 gusting 6 25.6
2019-Jul-21 02:05 222 2 gusting 6 25.6
2019-Jul-21 02:00 161 2 gusting 4 25.6
2019-Jul-21 01:55 142 4 gusting 6 25.6
2019-Jul-21 01:50 220 4 gusting 6 25.6
2019-Jul-21 01:45 225 4 gusting 6 25.6
2019-Jul-21 01:40 195 4 gusting 4 26.1
2019-Jul-21 01:35 230 4 gusting 7 26.1
2019-Jul-21 01:30 213 4 gusting 6 26.1
2019-Jul-21 01:25 201 4 gusting 6 26.1
2019-Jul-21 01:20 204 4 gusting 6 26.1
2019-Jul-21 01:15 211 4 gusting 6 26.1
2019-Jul-21 01:10 227 4 gusting 5 26.1
2019-Jul-21 01:05 234 4 gusting 5 26.1
2019-Jul-21 01:00 236 4 gusting 5 26.1
2019-Jul-21 00:55 223 4 gusting 5 26.1
2019-Jul-21 00:50 240 4 gusting 5 26.1
2019-Jul-21 00:45 234 4 gusting 6 26.1
2019-Jul-21 00:40 238 4 gusting 6 26.7
2019-Jul-21 00:35 228 4 gusting 6 26.7
2019-Jul-21 00:30 238 4 gusting 6 26.7
2019-Jul-21 00:25 230 2 gusting 7 26.7
2019-Jul-21 00:20 238 2 gusting 6 26.7
2019-Jul-21 00:15 227 2 gusting 5 26.7
2019-Jul-21 00:10 204 2 gusting 6 26.7
2019-Jul-21 00:05 173 2 gusting 4 27.2
2019-Jul-21 00:00 249 2 gusting 4 27.2
2019-Jul-20 23:55 227 1 gusting 5 27.2
2019-Jul-20 23:50 154 1 gusting 4 27.2
2019-Jul-20 23:45 154 27.2
2019-Jul-20 23:40 355 27.2
2019-Jul-20 23:35 355 26.7
2019-Jul-20 23:30 355 0 26.7
2019-Jul-20 23:25 266 1 26.7
2019-Jul-20 23:20 266 2 gusting 1 26.7
2019-Jul-20 23:15 266 2 gusting 4 26.7
2019-Jul-20 23:10 266 2 gusting 5 26.7
2019-Jul-20 23:05 269 1 gusting 6 26.7
2019-Jul-20 23:00 259 1 gusting 4 26.7
2019-Jul-20 22:55 279 1 gusting 4 26.7
2019-Jul-20 22:50 294 1 gusting 4 26.7
2019-Jul-20 22:45 301 26.7
2019-Jul-20 22:40 276 26.7
2019-Jul-20 22:35 017 26.7
2019-Jul-20 22:30 017 26.7
2019-Jul-20 22:25 017 26.7
2019-Jul-20 22:20 017 0 gusting 1 26.7
2019-Jul-20 22:15 013 2 gusting 2 26.7
2019-Jul-20 22:10 084 3 gusting 4 26.7
2019-Jul-20 22:05 029 4 gusting 6 26.7
2019-Jul-20 22:00 038 4 gusting 6 26.7
2019-Jul-20 21:55 037 4 gusting 7 26.7
2019-Jul-20 21:50 037 4 gusting 12 26.7
2019-Jul-20 21:45 040 5 gusting 7 26.7
2019-Jul-20 21:40 045 5 gusting 8 26.7
2019-Jul-20 21:35 037 5 gusting 8 26.7
2019-Jul-20 21:30 038 5 gusting 8 26.7
2019-Jul-20 21:25 029 5 gusting 7 26.7
2019-Jul-20 21:20 041 5 gusting 7 26.7
2019-Jul-20 21:15 044 5 gusting 8 26.7
2019-Jul-20 21:10 041 5 gusting 8 26.7
2019-Jul-20 21:05 042 6 gusting 8 26.7
2019-Jul-20 21:00 041 6 gusting 7 27.2
2019-Jul-20 20:55 050 6 gusting 10 27.2
2019-Jul-20 20:50 037 6 gusting 10 27.2
2019-Jul-20 20:45 043 6 gusting 10 27.2
2019-Jul-20 20:40 052 6 gusting 10 27.2
2019-Jul-20 20:35 041 6 gusting 8 27.2
2019-Jul-20 20:30 048 6 gusting 11 27.2
2019-Jul-20 20:25 041 6 gusting 12 27.2
2019-Jul-20 20:20 048 7 gusting 11 27.2
2019-Jul-20 20:15 044 7 gusting 12 27.2
2019-Jul-20 20:10 045 7 gusting 13 27.2
2019-Jul-20 20:05 048 8 gusting 13 27.8
2019-Jul-20 20:00 047 8 gusting 14 27.8
2019-Jul-20 19:55 041 8 gusting 14 27.8
2019-Jul-20 19:50 056 8 gusting 14 27.8
2019-Jul-20 19:45 043 7 gusting 13 27.8
2019-Jul-20 19:40 040 7 gusting 13 27.8
2019-Jul-20 19:35 037 6 gusting 12 28.3
2019-Jul-20 19:30 033 6 gusting 12 28.3
2019-Jul-20 19:25 038 6 gusting 11 28.3
2019-Jul-20 19:20 053 7 gusting 10 28.3
2019-Jul-20 19:15 036 7 gusting 13 28.3
2019-Jul-20 19:10 047 8 gusting 12 28.3
2019-Jul-20 19:05 049 8 gusting 13 28.9
2019-Jul-20 19:00 052 8 gusting 13 28.9
2019-Jul-20 18:55 047 7 gusting 15 28.9
2019-Jul-20 18:50 055 7 gusting 15 28.9
2019-Jul-20 18:45 056 7 gusting 13 28.9
2019-Jul-20 18:40 055 7 gusting 14 28.9
2019-Jul-20 18:35 060 7 gusting 14 29.4
2019-Jul-20 18:30 052 7 gusting 15 29.4
2019-Jul-20 18:25 058 7 gusting 14 29.4
2019-Jul-20 18:20 050 7 gusting 13 29.4
2019-Jul-20 18:15 057 7 gusting 13 29.4
2019-Jul-20 18:10 069 7 gusting 18 30.0
2019-Jul-20 18:05 051 7 gusting 17 30.0
2019-Jul-20 18:00 051 8 gusting 12 30.6
2019-Jul-20 17:55 048 8 gusting 19 30.6
2019-Jul-20 17:50 061 8 gusting 15 30.6
2019-Jul-20 17:45 044 6 gusting 15 30.6
2019-Jul-20 17:40 081 7 gusting 13 30.6
2019-Jul-20 17:35 042 7 gusting 13 31.1
2019-Jul-20 17:30 041 7 gusting 13 31.1
2019-Jul-20 17:25 056 6 gusting 13 31.1
2019-Jul-20 17:20 049 7 gusting 13 31.1
2019-Jul-20 17:15 081 10 gusting 15 31.1
2019-Jul-20 17:10 052 10 gusting 15 31.1
2019-Jul-20 17:05 048 10 gusting 18 30.6
2019-Jul-20 17:00 046 10 gusting 18 30.6
2019-Jul-20 16:55 054 11 gusting 17 30.6
2019-Jul-20 16:50 055 11 gusting 20 30.6
2019-Jul-20 16:45 049 11 gusting 18 30.6
2019-Jul-20 16:40 056 11 gusting 18 30.6
2019-Jul-20 16:35 052 11 gusting 15 30.6
2019-Jul-20 16:30 043 11 gusting 19 30.6
2019-Jul-20 16:25 052 11 gusting 19 30.6
2019-Jul-20 16:20 043 10 gusting 17 30.6
2019-Jul-20 16:15 044 8 gusting 17 30.6
2019-Jul-20 16:10 046 9 gusting 15 30.6
2019-Jul-20 16:05 037 10 gusting 17 30.6
2019-Jul-20 16:00 035 10 gusting 18 30.6
2019-Jul-20 15:55 041 11 gusting 19 30.6
2019-Jul-20 15:50 063 11 gusting 19 30.6
2019-Jul-20 15:45 051 12 gusting 18 30.0
2019-Jul-20 15:40 034 11 gusting 19 30.0
2019-Jul-20 15:35 040 10 gusting 18 30.0
2019-Jul-20 15:30 050 10 gusting 19 30.0
2019-Jul-20 15:25 045 10 gusting 18 30.0
2019-Jul-20 15:20 025 10 gusting 15 30.6
2019-Jul-20 15:15 053 11 gusting 17 30.0
2019-Jul-20 15:10 050 10 gusting 18 30.0
2019-Jul-20 15:05 050 8 gusting 19 30.0
2019-Jul-20 15:00 042 9 gusting 14 30.0
2019-Jul-20 14:55 066 10 gusting 18 30.0
2019-Jul-20 14:50 053 10 gusting 15 29.4
2019-Jul-20 14:45 035 11 gusting 19 30.0
2019-Jul-20 14:40 050 11 gusting 17 29.4
2019-Jul-20 14:35 030 11 gusting 18 29.4
2019-Jul-20 14:30 045 10 gusting 19 30.0
2019-Jul-20 14:25 041 10 gusting 18 30.0
2019-Jul-20 14:20 053 10 gusting 17 30.0
2019-Jul-20 14:15 055 11 gusting 18 30.0
2019-Jul-20 14:10 054 10 gusting 19 30.0
2019-Jul-20 14:05 051 8 gusting 19 30.0
2019-Jul-20 14:00 034 9 gusting 15 30.0
2019-Jul-20 13:55 054 10 gusting 15 30.0
2019-Jul-20 13:50 068 10 gusting 20 30.0
2019-Jul-20 13:45 048 12 gusting 17 30.0
2019-Jul-20 13:40 042 11 gusting 21 30.0
2019-Jul-20 13:35 053 10 gusting 21 30.0
2019-Jul-20 13:30 062 10 gusting 19 30.6
2019-Jul-20 13:25 064 10 gusting 18 30.6
2019-Jul-20 13:20 055 10 gusting 17 30.6
2019-Jul-20 13:15 055 11 gusting 19 30.6
2019-Jul-20 13:10 046 10 gusting 19 30.6
2019-Jul-20 13:05 037 10 gusting 19 30.6
2019-Jul-20 13:00 089 10 gusting 21 30.6
2019-Jul-20 12:55 069 10 gusting 17 30.6
2019-Jul-20 12:50 048 10 gusting 19 30.6
2019-Jul-20 12:45 054 12 gusting 17 30.6
2019-Jul-20 12:40 061 11 gusting 18 30.6
2019-Jul-20 12:35 051 11 gusting 19 30.6
2019-Jul-20 12:30 035 10 gusting 19 30.6
2019-Jul-20 12:25 056 10 gusting 17 31.1
2019-Jul-20 12:20 058 10 gusting 19 31.1
2019-Jul-20 12:15 064 8 gusting 20 31.1
2019-Jul-20 12:10 067 8 gusting 20 31.1
2019-Jul-20 12:05 049 8 gusting 22 31.1
2019-Jul-20 12:00 059 8 gusting 19 31.1
2019-Jul-20 11:55 038 7 gusting 18 31.7
2019-Jul-20 11:50 079 8 gusting 18 31.7
2019-Jul-20 11:45 073 8 gusting 18 31.7
2019-Jul-20 11:40 080 8 gusting 18 31.7
2019-Jul-20 11:35 087 7 gusting 14 31.7
2019-Jul-20 11:30 036 8 gusting 17 31.7
2019-Jul-20 11:25 045 8 gusting 17 32.2
2019-Jul-20 11:20 039 9 gusting 14 31.7
2019-Jul-20 11:15 033 10 gusting 18 31.7
2019-Jul-20 11:10 050 9 gusting 17 31.7
2019-Jul-20 11:04 071 7 gusting 14 31.7
2019-Jul-20 11:00 057 6 gusting 18 31.7
2019-Jul-20 10:55 053 5 gusting 14 31.7
2019-Jul-20 10:50 060 5 gusting 8 31.7
2019-Jul-20 10:45 020 5 gusting 10 31.7
2019-Jul-20 10:39 046 5 gusting 12 31.1
2019-Jul-20 10:34 038 6 gusting 10 31.1
2019-Jul-20 10:30 015 6 gusting 11 31.1
2019-Jul-20 10:25 032 6 gusting 12 31.1
2019-Jul-20 10:20 022 5 gusting 12 31.1
2019-Jul-20 10:15 025 4 gusting 10 31.1
2019-Jul-20 10:10 051 3 gusting 8 31.1
2019-Jul-20 10:05 042 2 gusting 6 30.6
2019-Jul-20 09:59 112 3 gusting 6 30.6
2019-Jul-20 09:55 047 4 gusting 6 30.0
2019-Jul-20 09:50 136 4 gusting 6 30.0
2019-Jul-20 09:45 052 4 gusting 7 30.0
2019-Jul-20 09:40 074 4 gusting 6 30.0
2019-Jul-20 09:34 058 4 gusting 6 29.4
2019-Jul-20 09:30 057 3 gusting 8 30.0
2019-Jul-20 09:25 017 2 gusting 6 30.0
2019-Jul-20 09:20 063 2 gusting 6 30.0
2019-Jul-20 09:14 107 1 gusting 6 30.0
2019-Jul-20 09:10 276 1 gusting 2 30.0
2019-Jul-20 09:05 350 1 gusting 4 29.4
2019-Jul-20 08:59 208 1 gusting 5 29.4
2019-Jul-20 08:55 145 1 gusting 4 28.9
2019-Jul-20 08:50 176 1 gusting 4 28.3
2019-Jul-20 08:45 262 1 gusting 5 28.3
2019-Jul-20 08:40 292 2 gusting 4 27.8
2019-Jul-20 08:35 146 4 gusting 4 27.8
2019-Jul-20 08:29 244 4 gusting 6 27.2
2019-Jul-20 08:25 157 4 gusting 7 27.2
2019-Jul-20 08:19 212 4 gusting 7 27.2
2019-Jul-20 08:15 182 4 gusting 6 27.2
2019-Jul-20 08:09 181 4 gusting 6 26.7
2019-Jul-20 08:05 142 4 gusting 6 26.7
2019-Jul-20 07:59 196 3 gusting 6 26.7
2019-Jul-20 07:55 186 2 gusting 6 26.7
2019-Jul-20 07:49 238 2 gusting 5 26.1
2019-Jul-20 07:45 239 1 gusting 5 26.1
2019-Jul-20 07:39 212 2 gusting 4 26.1
2019-Jul-20 07:34 213 2 gusting 4 25.6
2019-Jul-20 07:30 214 2 gusting 5 25.6
2019-Jul-20 07:24 267 2 gusting 6 25.6
2019-Jul-20 07:20 284 2 gusting 4 25.6
2019-Jul-20 07:15 278 4 gusting 6 25.6
2019-Jul-20 07:09 255 3 gusting 6 25.0
2019-Jul-20 07:05 196 2 gusting 6 25.0
2019-Jul-20 06:59 191 2 gusting 6 25.0
2019-Jul-20 06:55 197 2 gusting 5 25.0
2019-Jul-20 06:50 240 2 gusting 5 25.0
2019-Jul-20 06:45 272 2 gusting 4 24.4
2019-Jul-20 06:39 274 2 gusting 4 24.4
2019-Jul-20 06:34 258 4 gusting 5 24.4
2019-Jul-20 06:29 232 3 gusting 5 24.4
2019-Jul-20 06:24 252 2 gusting 6 24.4
2019-Jul-20 06:19 239 2 gusting 6 23.9
2019-Jul-20 06:14 253 2 gusting 5 23.9
2019-Jul-20 06:09 235 2 gusting 5 23.9
2019-Jul-20 06:05 253 1 gusting 6 23.9
2019-Jul-20 05:59 258 1 gusting 5 23.9
2019-Jul-20 05:55 253 1 gusting 4 23.9
2019-Jul-20 05:50 271 1 gusting 2 23.3
2019-Jul-20 05:44 271 1 gusting 4 23.3
2019-Jul-20 05:40 272 2 gusting 4 23.3
2019-Jul-20 05:34 260 2 gusting 4 23.3
2019-Jul-20 05:30 271 3 gusting 4 23.3
2019-Jul-20 05:24 262 4 gusting 5 23.3
2019-Jul-20 05:20 233 4 gusting 5 23.3
2019-Jul-20 05:15 250 4 gusting 6 23.3
2019-Jul-20 05:09 246 4 gusting 6 23.9
2019-Jul-20 05:04 248 4 gusting 6 23.9
2019-Jul-20 04:59 228 4 gusting 7 23.9
2019-Jul-20 04:54 225 4 gusting 6 23.9
2019-Jul-20 04:49 227 4 gusting 6 23.9
2019-Jul-20 04:44 221 4 gusting 8 23.9
2019-Jul-20 04:39 201 4 gusting 7 23.9
2019-Jul-20 04:35 216 4 gusting 5 23.9
2019-Jul-20 04:29 197 4 gusting 6 23.9
2019-Jul-20 04:24 236 4 gusting 6 23.9
2019-Jul-20 04:19 201 4 gusting 6 23.9
2019-Jul-20 04:14 202 4 gusting 6 23.9
2019-Jul-20 04:09 215 3 gusting 6 24.4
2019-Jul-20 04:04 245 2 gusting 6 24.4
2019-Jul-20 03:59 261 2 gusting 6 24.4
2019-Jul-20 03:54 250 4 gusting 5 24.4
2019-Jul-20 03:49 209 4 gusting 5 24.4
2019-Jul-20 03:44 226 4 gusting 5 24.4
2019-Jul-20 03:39 228 4 gusting 6 24.4
2019-Jul-20 03:35 219 4 gusting 6 24.4
2019-Jul-20 03:29 222 4 gusting 5 24.4
2019-Jul-20 03:24 219 4 gusting 5 24.4
2019-Jul-20 03:19 232 4 gusting 6 24.4
2019-Jul-20 03:14 214 4 gusting 6 24.4
2019-Jul-20 03:09 231 3 gusting 6 24.4
2019-Jul-20 03:04 242 1 gusting 6 24.4
2019-Jul-20 02:59 234 1 gusting 6 24.4
2019-Jul-20 02:54 239 1 gusting 4 25.0
2019-Jul-20 02:49 246 1 gusting 4 25.0
2019-Jul-20 02:44 255 1 gusting 4 25.0
2019-Jul-20 02:39 229 1 gusting 4 25.0
2019-Jul-20 02:34 228 25.0
2019-Jul-20 02:30 256 25.0
2019-Jul-20 02:24 283 25.0
2019-Jul-20 02:20 285 25.0
2019-Jul-20 02:14 284 25.0
2019-Jul-20 02:09 276 25.0
2019-Jul-20 02:04 276 25.0
2019-Jul-20 01:59 264 0 25.0
2019-Jul-20 01:54 264 0 25.0
2019-Jul-20 01:49 264 0 25.0
2019-Jul-20 01:44 263 0 gusting 4 25.0
2019-Jul-20 01:39 275 0 gusting 2 25.0
2019-Jul-20 01:34 275 0 gusting 1 25.0
2019-Jul-20 01:29 275 1 gusting 2 25.0
2019-Jul-20 01:24 296 1 gusting 4 25.0
2019-Jul-20 01:20 298 1 gusting 2 25.0
2019-Jul-20 01:14 293 1 gusting 4 25.0
2019-Jul-20 01:10 299 1 gusting 4 25.0
2019-Jul-20 01:05 319 0 gusting 4 25.6
2019-Jul-20 00:59 291 0 gusting 1 25.6
2019-Jul-20 00:54 291 25.6
2019-Jul-20 00:49 290 25.6
2019-Jul-20 00:44 290 25.6
2019-Jul-20 00:39 290 25.6
2019-Jul-20 00:34 290 25.6
2019-Jul-20 00:29 290 25.6
2019-Jul-20 00:24 290 25.6
2019-Jul-20 00:19 290 0 25.6
2019-Jul-20 00:14 290 1 gusting 1 25.6
2019-Jul-20 00:09 290 1 gusting 2 25.6
2019-Jul-20 00:04 296 1 gusting 2 25.6
2019-Jul-19 23:59 321 1 gusting 2 25.0
2019-Jul-19 23:54 321 1 gusting 4 25.0
2019-Jul-19 23:49 339 1 gusting 2 25.6
2019-Jul-19 23:44 339 1 gusting 2 25.6
2019-Jul-19 23:40 339 1 gusting 2 25.6
2019-Jul-19 23:34 340 1 gusting 4 25.0
2019-Jul-19 23:29 058 1 gusting 2 25.0
2019-Jul-19 23:24 058 1 gusting 4 25.0
2019-Jul-19 23:19 058 1 gusting 4 25.0
2019-Jul-19 23:14 024 1 gusting 4 25.0
2019-Jul-19 23:09 012 1 gusting 4 25.6
2019-Jul-19 23:04 011 1 gusting 4 25.6
2019-Jul-19 22:59 021 1 gusting 4 25.6
2019-Jul-19 22:54 336 1 gusting 4 25.6
2019-Jul-19 22:49 345 1 gusting 4 25.6
2019-Jul-19 22:44 345 2 gusting 4 25.6
2019-Jul-19 22:39 023 2 gusting 4 25.6
2019-Jul-19 22:34 011 1 gusting 4 25.6
2019-Jul-19 22:29 012 1 gusting 4 25.6
2019-Jul-19 22:24 340 0 gusting 2 25.6
2019-Jul-19 22:19 317 1 gusting 4 25.6
2019-Jul-19 22:14 318 1 gusting 2 25.6
2019-Jul-19 22:09 333 1 gusting 4 25.6
2019-Jul-19 22:04 333 1 gusting 4 25.6
2019-Jul-19 21:59 331 1 gusting 4 25.6
2019-Jul-19 21:54 327 25.6
2019-Jul-19 21:49 014 0 25.6
2019-Jul-19 21:44 014 2 25.6
2019-Jul-19 21:39 043 3 gusting 4 25.6
2019-Jul-19 21:34 038 4 gusting 6 25.6
2019-Jul-19 21:29 038 4 gusting 6 25.6
2019-Jul-19 21:24 060 4 gusting 7 25.6
2019-Jul-19 21:19 048 4 gusting 7 25.6
2019-Jul-19 21:14 056 4 gusting 6 25.6
2019-Jul-19 21:09 042 4 gusting 6 25.6
2019-Jul-19 21:04 050 5 gusting 6 25.6
2019-Jul-19 20:59 047 5 gusting 6 25.6
2019-Jul-19 20:54 049 5 gusting 10 26.1
2019-Jul-19 20:49 047 5 gusting 8 26.1
2019-Jul-19 20:44 041 6 gusting 7 26.1
2019-Jul-19 20:39 044 6 gusting 11 26.1
2019-Jul-19 20:34 037 6 gusting 12 26.1
2019-Jul-19 20:29 050 6 gusting 10 26.1
2019-Jul-19 20:24 041 6 gusting 10 26.1
2019-Jul-19 20:19 050 7 gusting 8 26.1
2019-Jul-19 20:14 043 7 gusting 11 26.1
2019-Jul-19 20:09 053 7 gusting 11 26.7
2019-Jul-19 20:04 051 7 gusting 13 26.7
2019-Jul-19 19:59 050 7 gusting 12 26.7
2019-Jul-19 19:54 045 6 gusting 12 26.7
2019-Jul-19 19:49 048 6 gusting 13 26.7
2019-Jul-19 19:44 044 6 gusting 12 26.7
2019-Jul-19 19:39 028 6 gusting 12 26.7
2019-Jul-19 19:34 039 6 gusting 11 27.2
2019-Jul-19 19:29 035 6 gusting 11 27.2
2019-Jul-19 19:24 042 6 gusting 11 27.2
2019-Jul-19 19:19 053 6 gusting 12 27.8
2019-Jul-19 19:14 058 6 gusting 12 27.8
2019-Jul-19 19:09 040 6 gusting 10 27.8
2019-Jul-19 19:04 058 6 gusting 12 27.8
2019-Jul-19 18:59 048 6 gusting 12 28.3
2019-Jul-19 18:54 037 6 gusting 13 28.3
2019-Jul-19 18:49 048 6 gusting 13 28.3
2019-Jul-19 18:44 074 6 gusting 11 28.3
2019-Jul-19 18:39 050 6 gusting 11 28.3
2019-Jul-19 18:34 042 6 gusting 13 28.3
2019-Jul-19 18:29 049 6 gusting 12 28.9
2019-Jul-19 18:24 056 6 gusting 13 28.9
2019-Jul-19 18:19 059 6 gusting 13 28.9
2019-Jul-19 18:14 039 6 gusting 13 28.9
2019-Jul-19 18:09 056 6 gusting 11 29.4
2019-Jul-19 18:04 061 6 gusting 12 29.4
2019-Jul-19 17:59 045 6 gusting 13 29.4
2019-Jul-19 17:54 066 6 gusting 13 29.4
2019-Jul-19 17:49 042 6 gusting 13 30.0
2019-Jul-19 17:44 059 7 gusting 12 30.0
2019-Jul-19 17:39 090 7 gusting 13 30.0
2019-Jul-19 17:34 064 6 gusting 13 30.0
2019-Jul-19 17:29 071 6 gusting 13 30.0
2019-Jul-19 17:24 065 6 gusting 13 30.6
2019-Jul-19 17:19 045 7 gusting 13 30.6
2019-Jul-19 17:14 058 7 gusting 12 30.6
2019-Jul-19 17:09 064 7 gusting 13 30.6
2019-Jul-19 17:04 055 7 gusting 13 30.6
2019-Jul-19 16:59 040 7 gusting 13 30.6
2019-Jul-19 16:54 030 7 gusting 13 30.6
2019-Jul-19 16:49 064 7 gusting 13 30.6
2019-Jul-19 16:44 056 7 gusting 17 30.6
2019-Jul-19 16:39 044 8 gusting 14 31.1
2019-Jul-19 16:34 055 8 gusting 13 31.1
2019-Jul-19 16:29 058 8 gusting 14 30.6
2019-Jul-19 16:24 058 8 gusting 18 30.6
2019-Jul-19 16:19 054 8 gusting 19 31.1
2019-Jul-19 16:14 054 7 gusting 14 31.1
2019-Jul-19 16:09 072 7 gusting 14 31.1
2019-Jul-19 16:04 048 7 gusting 17 31.1
2019-Jul-19 15:59 074 8 gusting 12 31.1
2019-Jul-19 15:54 063 10 gusting 13 31.1
2019-Jul-19 15:49 050 9 gusting 18 31.1
2019-Jul-19 15:44 043 7 gusting 17 31.1
2019-Jul-19 15:39 050 7 gusting 19 31.1
2019-Jul-19 15:34 054 7 gusting 15 31.1
2019-Jul-19 15:29 046 7 gusting 18 31.7
2019-Jul-19 15:24 061 7 gusting 14 31.1
2019-Jul-19 15:19 079 7 gusting 15 31.7
2019-Jul-19 15:14 066 8 gusting 14 31.7
2019-Jul-19 15:09 042 7 gusting 15 31.7
2019-Jul-19 15:04 056 6 gusting 17 31.7